sat.trackr.live / text

‹ back to catalog

MUOS-5

NORAD 41622 · 2016-041A

PAYLOAD ACTIVE UNKNOWN

§ Identity

Operator
Country
US
Launch date
2016-06-24
Launch site
AFETR
Launch vehicle
Mass (kg)
RCS (m²)
14.25

Purposes: comms

External: N2YO · Heavens-Above · Gunter

§ Orbital elements

Epoch: 2026-09-20T03:57:42.378048Z

Period
1,436.09 min
Inclination
2.0104°
Eccentricity
0.0204011
Mean motion
1.00272140 rev/d
Perigee alt
34,926.3 km
Apogee alt
36,646.7 km
Semi-major
42,164.6 km
B*
0.0000e+0
RAAN
303.8290°
Arg perigee
260.7923°
Mean anomaly
108.9010°
Rev number
3,804

§ Raw data

MUOS-51 41622U 16041A   26263.16507382 -.00000153  00000+0  00000+0 0  99962 41622   2.0104 303.8290 0204011 260.7923 108.9010  1.00272140 38047

JSON: /api/v1/satellites/41622 · /tle

For live sub-satellite position, see the globe view (requires WebGL).

§ Visibility from observer

Set your observer location to see the next 7 days of passes ≥ 10°. The values pass through the URL so the page stays shareable.

No JS? Fill the form by hand. The geolocation button needs JavaScript.